Oregon State Current Weather Observations

 
 ASUS46 KPQR 140010
 RWROR 
 
 OREGON REGIONAL WEATHER ROUNDUP
 NATIONAL WEATHER SERVICE PORTLAND OR
 400 PM PST WED DEC 13 2017
 
 NOTE: "FAIR" INDICATES FEW OR NO CLOUDS BELOW 12,000 FEET WITH
 NO SIGNIFICANT WEATHER AND/OR OBSTRUCTIONS TO VISIBILITY.
 
 ORZ001>013-140100-
 NORTHWEST OREGON
 
   
 CITY           SKY/WX    TMP DP  RH WIND       PRES   REMARKS
 ASTORIA        CLEAR     51  35  54 VRB5      30.30R                  
 6HR MIN TEMP:  43; 6HR MAX TEMP:  55;                                
 
 NEWPORT        CLEAR     52  34  50 NE10      30.27S                  
 PORTLAND       PTCLDY    42  29  59 SE12      30.36S                  
 6HR MIN TEMP:  38; 6HR MAX TEMP:  46;                                
 
 VANCOUVER WA   PTCLDY    43  30  60 CALM      30.36S                  
 6HR MIN TEMP:  37; 6HR MAX TEMP:  45;                                
 
 SCAPPOOSE      CLEAR     45  33  63 SE3       30.36R                  
 6HR MIN TEMP:  34; 6HR MAX TEMP:  48;                                
 
 HILLSBORO      CLEAR     46  32  58 N6        30.35R                  
 6HR MIN TEMP:  34; 6HR MAX TEMP:  49;                                
 
 AURORA         PTCLDY    45  28  51 N8        30.33S                  
 6HR MIN TEMP:  40; 6HR MAX TEMP:  49;                                
 
 MCMINNVILLE    CLEAR     47  32  56 N9        30.34R                  
 6HR MIN TEMP:  39; 6HR MAX TEMP:  50;                                
 
 SALEM          CLEAR     46  28  49 N9        30.31S                  
 6HR MIN TEMP:  38; 6HR MAX TEMP:  48;                                
 
 CORVALLIS      CLEAR     44  33  65 NE8       30.31S                  
 EUGENE         PTCLDY    39  33  79 N5        30.30S                  
 6HR MIN TEMP:  31; 6HR MAX TEMP:  42;                                
 
 
ORZ021-028-140100- SOUTHWEST OREGON CITY SKY/WX TMP DP RH WIND PRES REMARKS NORTH BEND CLEAR 58 40 51 CALM 30.20S 6HR MIN TEMP: 46; 6HR MAX TEMP: 60; BROOKINGS CLEAR 55 42 61 S3 30.15F ROSEBURG CLEAR 37 35 92 SW3 30.28S FOG 6HR MIN TEMP: 32; 6HR MAX TEMP: 38; SEXTON SUMMIT CLEAR 58 24 27 N6 30.23S 6HR MIN TEMP: 55; 6HR MAX TEMP: 61; GRANTS PASS CLOUDY 34 34 100 CALM 30.30 FOG MEDFORD CLEAR 46 32 58 CALM 30.24S 6HR MIN TEMP: 28; 6HR MAX TEMP: 47;
ORZ014>016-041-140100- COLUMBIA GORGE CITY SKY/WX TMP DP RH WIND PRES REMARKS TROUTDALE PTCLDY 39 27 62 E24G38 30.37R WCI 28 6HR MIN TEMP: 39; 6HR MAX TEMP: 42; HOOD RIVER CLOUDY 32 27 80 E7 30.58S WCI 26 THE DALLES CLOUDY 36 26 67 SE7 30.62R WCI 30 6HR MIN TEMP: 35; 6HR MAX TEMP: 36;
ORZ029>031-041-044-049-050-061>064-502-503-505>511-140100- EASTERN OREGON CITY SKY/WX TMP DP RH WIND PRES REMARKS MADRAS CLOUDY N/A N/A N/A W5 30.50S REDMOND FOG 23 21 92 NW3 30.44R VSB 1 6HR MIN TEMP: 21; 6HR MAX TEMP: 23; BEND MOCLDY 23 21 93 NE3 30.42S PRINEVILLE CLOUDY 23 21 93 W5 30.43S FOG WCI 17 KLAMATH FALLS CLEAR 44 24 45 CALM 30.28R 6HR MIN TEMP: 29; 6HR MAX TEMP: 47; LAKEVIEW CLEAR 45 16 31 N15 30.28S HERMISTON CLOUDY 32 27 81 E5 30.59S WCI 27 6HR MIN TEMP: 31; 6HR MAX TEMP: 33; PENDLETON CLOUDY 28 25 88 CALM 30.54R 6HR MIN TEMP: 28; 6HR MAX TEMP: 29; JOHN DAY CLEAR 37 22 55 CALM 30.36S MEACHAM PTCLDY 24 20 84 CALM 30.39R 6HR MIN TEMP: 22; 6HR MAX TEMP: 29; LA GRANDE CLEAR 29 24 82 W6 30.43R WCI 23 6HR MIN TEMP: 29; 6HR MAX TEMP: 35; BAKER CITY CLEAR 33 20 58 CALM 30.38S 6HR MIN TEMP: 27; 6HR MAX TEMP: 36; BURNS PTCLDY 30 21 69 CALM 30.35R 6HR MIN TEMP: 22; 6HR MAX TEMP: 32; ROME N/A 27 21 78 CALM 30.33R 6HR MIN TEMP: 20; 6HR MAX TEMP: 29; ONTARIO PTCLDY 29 22 75 CALM 30.46S 6HR MIN TEMP: 27; 6HR MAX TEMP: 30;

Data from: http://www.wrh.noaa.gov/sew/get.php?pil=RWR&sid=OR&version=0&format=printer

Current Observations

Current Weather Conditions by Major Highway
Washington State Current Weather Observations   …  Oregon State Current Weather Observation



48 Hour Forecast


Seattle  …  Vancouver  …  Portland
————————————————————————————————————————
Bend  …  Spokane  …  Richland  …  Pendleton  …  Blue Mountains I-84  …  Yakima
————————————————————————————————————————
Goldendale, Washington Higher Elevations  …  Dallesport Airport - Goldendale  …  Bingen - White Salmon - Hood River  …  Index





Top of Page